Wind_Speed
8 16 18 23 26 30 32 37 36 37 37 35 32 26 26 24 22 21 20 20 20 19 18 17 18 19 19 19 19 19 19 19 18 13 9 8 7 7 7 8 7 6 7
7 12 16 22 26 27 30 32 36 38 37 36 33 30 31 27 24 23 22 21 21 21 19 19 19 19 20 20 20 21 21 17 22 7 6 4 3 4 6 7 6 6 5
12 12 14 21 23 26 29 32 33 34 33 32 28 21 26 19 22 24 25 25 24 23 21 19 19 20 19 21 21 21 21 15 23 15 5 3 3 5 4 5 5 6 6
10 12 15 20 25 26 29 31 34 40 36 29 28 31 32 23 30 33 31 29 27 25 22 21 20 20 20 20 21 21 19 19 18 15 11 4 6 3 4 4 6 7 7
11 14 15 23 27 29 30 32 30 33 36 34 32 31 26 31 28 32 33 30 29 27 25 24 23 22 21 19 20 21 22 19 19 19 11 8 7 6 3 3 6 5 7
10 12 18 22 24 25 27 31 28 23 20 30 35 35 30 28 30 31 31 33 31 29 27 26 26 24 23 23 22 21 21 21 18 20 16 13 7 7 5 3 4 5 3
7 11 13 15 20 24 29 30 33 31 24 24 37 39 40 32 34 35 37 37 36 35 34 33 31 29 27 24 24 24 23 22 21 21 18 15 11 7 10 6 5 4 4
5 9 13 16 24 28 30 29 30 27 28 33 37 40 39 37 39 36 36 39 41 40 38 36 35 32 28 26 25 25 24 22 20 18 17 16 14 12 13 8 9 3 3
4 5 9 15 22 25 30 31 31 30 34 34 31 34 39 40 38 37 35 34 40 40 39 39 37 33 29 28 28 28 27 25 23 21 19 17 16 14 13 12 15 8 5
5 5 5 12 15 23 28 31 33 34 34 38 39 40 38 42 41 34 36 37 34 38 39 39 37 33 31 30 29 29 27 25 24 22 21 19 18 17 15 14 14 11 6
5 5 5 9 12 19 24 25 27 30 31 28 33 31 34 35 36 33 35 37 38 39 36 37 40 38 36 35 33 31 29 28 26 24 23 21 19 18 17 16 14 12 11
6 6 5 5 8 14 20 27 27 27 30 32 31 34 33 32 34 34 37 38 39 40 36 36 39 41 39 38 37 35 33 31 30 27 24 22 20 19 19 19 17 14 13
7 4 5 4 5 11 15 19 27 31 30 31 29 31 33 33 33 34 37 38 39 38 36 35 38 41 41 41 39 38 36 33 31 29 27 25 24 23 22 21 19 17 15
8 6 4 5 6 8 14 17 19 22 26 29 29 29 31 34 36 36 36 39 38 37 36 37 39 41 43 42 41 38 38 34 32 29 27 25 25 25 25 23 21 19 18
7 7 6 3 6 7 10 15 16 18 24 25 26 28 29 29 29 31 37 36 36 37 37 39 38 42 41 43 41 41 39 34 33 31 27 27 26 23 24 25 26 23 22
10 7 5 5 5 8 9 10 12 16 20 23 23 24 25 27 29 33 33 33 34 37 38 39 40 42 43 43 43 42 38 35 36 32 30 28 25 24 23 23 23 24 27
8 8 5 4 2 5 5 7 8 9 15 19 20 21 24 27 28 27 29 31 34 32 36 37 38 40 38 38 39 36 32 32 33 30 30 28 27 25 25 22 21 21 23
6 4 3 4 2 1 3 3 5 6 8 10 14 18 22 25 26 25 25 29 29 32 31 27 26 25 30 37 35 34 27 28 26 28 27 27 26 27 26 25 24 23 22
1 2 3 3 4 3 4 5 6 4 4 6 7 10 16 19 22 22 23 22 23 23 23 26 34 33 27 26 29 29 25 21 23 22 24 24 26 27 26 26 26 23 21
5 7 10 9 9 8 6 12 10 7 5 4 5 6 6 10 13 15 16 17 19 20 20 25 27 27 32 39 38 33 29 26 25 21 23 25 25 27 28 29 28 27 25
11 15 18 16 13 11 14 17 15 13 7 6 6 6 6 5 5 8 11 13 14 15 18 21 20 21 24 32 31 32 32 34 30 29 29 27 25 26 27 28 29 30 27
13 16 18 19 21 19 19 17 17 11 9 9 9 8 7 6 5 5 5 7 10 13 13 13 15 17 21 25 26 27 25 25 28 31 34 32 30 29 29 28 27 25 23
15 17 17 19 22 23 23 18 16 12 12 11 11 9 8 7 6 5 6 6 7 7 7 9 11 14 16 20 22 23 24 23 29 33 33 30 30 29 28 26 24 24 26
15 18 20 19 19 22 23 23 18 15 15 14 12 10 9 8 7 6 6 7 9 8 9 10 10 15 16 17 21 26 26 26 28 24 23 25 28 30 29 26 24 29 28
16 21 20 18 18 18 21 26 23 18 19 18 15 13 11 10 8 8 7 4 2 2 4 7 10 13 17 22 23 25 28 27 25 23 21 22 25 25 28 28 29 28 26
19 22 20 21 21 24 27 29 25 23 23 23 21 16 14 12 11 9 10 8 6 4 3 2 2 5 8 11 19 25 26 25 24 23 23 21 23 24 24 25 26 27 27
Wind_Direction
241 184 191 187 181 179 177 192 186 191 189 183 178 181 184 186 189 191 192 191 189 185 182 177 175 173 172 172 172 166 163 154 154 130 116 110 127 135 134 135 134 131 140
212 172 176 185 182 184 178 179 185 192 195 189 188 187 186 191 193 193 194 195 193 191 188 187 184 179 176 175 176 174 163 168 166 156 141 158 149 145 148 146 148 150 146
204 190 181 186 179 178 181 181 184 191 192 193 195 185 180 184 191 198 199 198 197 197 194 193 192 186 187 183 182 181 181 170 185 177 157 152 181 150 161 149 157 161 145
204 202 186 192 182 190 182 181 183 189 193 196 196 189 181 179 201 201 202 200 199 199 197 198 198 195 192 190 191 191 192 190 185 194 211 182 146 164 164 163 145 155 158
209 204 193 188 196 191 179 174 178 188 188 200 203 201 193 197 203 204 205 202 201 202 201 202 203 201 199 197 198 198 201 201 198 193 183 190 181 166 144 163 169 140 151
228 222 205 197 187 183 179 181 189 192 192 192 206 208 202 198 200 205 205 204 204 203 206 207 209 208 204 201 202 203 205 207 209 202 198 184 174 185 160 129 154 166 127
235 220 210 201 191 189 188 190 198 205 207 222 203 212 218 210 208 205 202 202 204 206 208 207 208 209 208 205 204 205 205 205 206 205 205 205 202 185 187 138 140 151 158
245 219 215 200 193 193 197 196 197 199 201 200 202 207 213 211 215 214 214 208 208 211 212 209 209 211 209 207 207 208 207 206 207 206 206 207 207 204 196 179 157 138 152
355 260 228 211 198 194 193 197 199 204 205 205 211 207 211 218 218 215 220 217 215 215 216 215 210 209 210 210 209 209 208 205 205 205 203 204 204 202 197 198 193 161 169
7 355 264 231 204 200 201 205 206 204 202 206 207 209 212 218 222 220 221 222 226 221 216 216 213 209 210 212 211 212 210 209 207 204 205 202 201 198 196 197 199 199 163
316 325 314 268 230 207 206 206 204 206 212 205 209 214 214 220 219 217 221 223 228 229 221 217 213 210 208 211 211 212 210 209 209 204 205 205 202 199 196 192 192 193 181
289 301 291 284 244 220 199 207 211 209 207 214 212 212 213 214 217 216 220 221 223 226 227 221 218 211 209 210 211 209 209 209 207 205 203 205 201 200 197 193 190 192 185
319 302 304 288 257 240 224 206 206 208 208 209 213 212 215 212 213 213 217 221 225 225 221 224 221 219 213 211 213 214 210 210 212 210 203 203 202 197 198 196 192 190 186
301 297 297 277 267 248 230 225 225 210 203 202 206 211 211 214 219 221 219 221 223 226 225 222 222 223 219 215 213 213 214 208 211 210 209 205 207 205 201 198 197 194 185
297 297 302 249 265 251 238 230 231 221 211 206 209 215 214 214 212 209 217 223 223 228 230 227 222 223 219 219 215 216 214 209 210 206 206 206 207 209 212 204 202 197 191
287 293 300 306 239 242 250 256 229 223 217 214 213 215 217 217 213 212 221 215 215 224 225 224 224 220 218 220 218 216 213 211 214 203 202 203 203 203 208 211 215 210 200
287 304 328 343 311 230 239 260 246 221 218 213 213 210 213 219 226 218 206 214 217 229 224 220 220 219 220 219 216 218 216 215 215 210 205 197 200 199 201 205 214 211 212
287 325 353 335 49 277 179 205 216 214 211 212 216 220 217 212 221 226 218 217 216 218 218 219 222 223 216 225 218 213 208 220 219 216 209 204 200 199 198 196 200 204 207
63 49 28 360 22 67 112 129 124 155 168 195 204 212 214 208 211 209 207 208 203 209 215 219 221 220 217 210 208 199 198 204 219 214 214 211 209 202 198 197 196 195 200
65 64 70 71 59 40 78 97 90 100 89 112 146 156 181 200 205 215 219 219 220 223 214 215 209 208 211 207 195 192 188 196 209 207 221 217 212 206 199 200 197 192 192
74 72 62 55 49 67 87 76 76 58 56 83 98 108 121 141 171 182 187 187 192 194 199 204 204 204 206 195 192 191 192 189 196 205 211 213 211 208 204 203 203 206 193
56 58 66 53 44 64 64 55 53 55 69 83 92 97 103 110 129 150 153 172 178 179 182 185 186 198 200 199 196 197 202 205 201 210 211 209 205 203 204 202 205 209 200
60 57 60 63 49 46 54 43 38 62 73 75 71 73 80 88 100 123 136 144 162 171 188 197 193 194 195 198 200 208 204 211 217 218 216 210 203 201 204 209 202 203 200
56 66 59 47 45 37 44 53 54 65 81 80 70 63 60 60 67 89 118 146 163 174 186 187 195 204 196 193 196 200 206 212 213 216 216 210 203 200 204 204 203 205 202
57 62 59 49 42 38 42 51 60 70 74 77 76 71 70 68 67 62 56 60 75 183 198 202 199 190 198 206 201 198 202 209 209 202 196 191 188 190 199 199 202 203 204
58 59 57 51 41 39 39 43 54 61 66 62 61 62 73 71 73 76 76 68 61 72 80 79 195 227 240 238 216 213 217 217 208 193 187 185 188 192 191 191 195 202 204
Height
727 732 735 739 741 747 753 756 763 772 777 782 786 792 794 800 805 809 813 818 822 824 828 830 833 835 837 841 844 847 851 854 857 860 864 866 866 867 868 868 869 870 871
725 730 734 737 740 744 749 752 761 766 773 777 781 783 788 795 801 806 811 815 819 822 825 828 831 833 836 838 842 844 848 852 855 857 861 865 868 867 867 868 869 869 870
722 723 731 733 736 738 742 748 752 760 768 774 780 782 788 794 799 803 807 811 815 819 822 826 829 831 834 836 839 842 845 848 852 853 855 861 858 864 867 867 868 869 870
719 720 723 730 733 737 742 746 750 751 761 770 776 777 778 783 788 795 801 806 811 815 819 823 826 828 831 833 836 839 842 845 847 850 852 853 854 858 863 866 866 868 869
715 716 717 721 727 734 737 741 749 753 751 763 769 775 777 779 784 791 797 803 807 811 814 818 823 825 827 830 833 835 839 841 843 845 848 851 852 853 857 861 865 866 867
714 713 714 720 725 730 735 738 745 749 752 748 759 769 772 776 780 786 793 798 802 806 810 814 818 821 822 824 828 832 835 837 840 842 843 844 848 850 852 857 864 866 868
711 710 711 714 721 726 730 736 739 741 740 746 746 759 768 772 776 777 783 789 795 799 801 806 811 815 818 820 823 826 830 833 835 838 840 842 844 845 849 853 859 863 867
711 707 707 712 716 720 725 729 730 735 738 740 743 752 761 767 771 774 778 779 783 788 794 798 803 809 813 817 820 823 825 829 832 835 837 839 841 842 844 848 853 860 863
709 706 705 705 708 712 716 720 725 729 731 736 747 748 753 761 765 767 774 776 778 780 786 793 797 802 808 812 816 818 821 823 827 830 832 834 837 840 841 843 848 850 855
707 705 704 703 702 705 709 713 718 723 724 730 736 743 746 752 756 760 765 769 776 777 778 786 793 796 801 808 811 815 817 820 822 824 829 829 832 835 837 840 843 847 850
706 704 701 699 699 702 705 709 714 718 723 727 731 735 738 746 750 753 757 764 766 774 774 778 785 788 791 799 804 808 811 815 818 818 823 826 828 832 834 837 840 844 845
703 701 699 696 696 698 700 702 706 710 714 717 723 729 734 739 745 747 749 756 760 765 771 773 780 781 784 790 796 799 803 807 811 814 817 822 824 828 831 833 835 839 842
697 698 697 695 694 693 696 697 699 701 707 714 719 723 728 733 737 742 742 748 756 759 762 767 772 778 779 781 786 793 795 801 805 809 809 815 820 821 827 830 832 836 840
695 694 694 693 692 692 691 693 696 699 702 706 712 717 720 724 727 731 737 741 747 754 756 757 763 770 773 775 778 785 791 791 798 801 805 808 814 818 822 826 831 835 836
692 692 690 691 689 690 690 690 692 694 697 700 703 707 712 718 722 726 730 735 739 745 748 753 754 761 764 769 773 781 785 785 791 794 796 801 806 812 820 821 826 829 832
688 686 688 688 686 685 686 688 689 690 692 695 699 703 708 713 716 721 721 724 731 737 740 745 748 751 754 759 766 774 775 780 787 785 789 795 800 804 812 818 824 824 827
687 686 686 687 686 685 683 685 686 687 691 692 694 698 702 707 711 714 717 719 723 727 729 736 739 740 746 754 760 769 772 774 782 785 790 789 794 799 805 812 820 822 826
688 687 687 686 687 687 685 684 687 688 690 691 691 694 697 701 705 708 708 716 718 723 724 729 735 741 739 747 752 762 765 776 780 785 786 788 792 797 801 806 813 819 822
690 689 688 687 687 687 685 685 686 689 691 690 692 694 695 698 702 705 709 710 716 721 725 723 729 731 732 750 754 757 763 767 779 780 784 786 791 795 798 802 808 814 818
690 689 689 689 689 688 686 684 687 689 692 693 695 695 697 699 702 704 707 711 713 717 718 731 731 731 734 735 740 746 753 763 772 771 780 785 788 793 794 799 805 810 814
692 692 691 691 692 692 692 689 689 691 693 693 694 696 699 702 705 707 709 712 715 717 722 728 726 729 735 741 739 741 750 750 756 764 776 782 785 790 792 796 801 808 810
697 697 696 697 698 696 696 695 693 694 696 697 699 701 703 704 706 707 709 711 715 720 722 722 724 726 730 734 738 742 746 753 755 765 770 774 779 785 790 793 799 807 808
702 703 703 704 704 703 701 701 700 698 698 700 702 704 706 707 708 710 711 713 715 716 718 720 723 725 728 733 734 741 743 751 757 762 768 770 776 782 789 793 795 802 804
710 709 710 712 711 710 707 706 706 704 702 703 705 707 708 709 711 712 713 716 718 720 721 723 726 731 731 731 736 739 745 751 757 760 764 768 774 777 782 787 794 795 798
718 714 715 719 719 718 714 711 710 710 709 709 710 712 713 713 715 716 717 718 720 721 722 724 724 725 729 731 736 741 743 745 748 756 760 765 770 775 778 783 790 790 792
721 720 723 723 723 720 717 716 714 713 712 713 714 717 718 719 719 720 721 721 721 722 722 723 725 727 728 730 733 738 741 744 747 751 754 759 764 769 774 778 782 784 788